Weather History for OTBD - February, 2012

Change the Weather History Date:

Monday, February 6, 2012

  Actual Average Record
Temperature  
Mean Temperature 63 °F -  
Max Temperature 69 °F 74 °F 80 °F (1998)
Min Temperature 57 °F 58 °F 53 °F (2000)
Degree Days  
Heating Degree Days 2    
Growing Degree Days 13 (Base 50)    
Moisture  
Dew Point 53 °F    
Average Humidity 67    
Maximum Humidity 82    
Minimum Humidity 52    
Precipitation  
Precipitation 0.00 in 0.02 in - ()
Sea Level Pressure  
Sea Level Pressure 30.21 in    
Wind  
Wind Speed 6 mph ()    
Max Wind Speed 14 mph    
Max Gust Speed -    
Visibility 6.6 miles    
Events      
Averages and records for this station are not official NWS values.
T = Trace of Precipitation, MM = Missing Value Source: Averaged Metar Reports

Daily Weather History Graph

Daily Weather History Graph

Search for Another Location

Airport or City:

Trip Planner

Search our weather history database for the weather conditions in past years. The results will help you decide how hot, cold, wet, or windy it might be!

Date:

Astronomy

Feb. 06, 2012 Rise Set
Actual Time 6:14 AM AST 5:21 PM AST
Civil Twilight 5:50 AM AST 5:44 PM AST
Nautical Twilight 5:23 AM AST 6:12 PM AST
Astronomical Twilight 4:56 AM AST 6:39 PM AST
Moon 4:02 PM AST (2/6) 4:45 AM AST (2/6)
Length of Visible Light 11h 54m
Length of Day
11h 06m
Waxing Gibbous, 97% of the Moon is Illuminated
Feb 6
Waxing Gibbous
Feb 8
Full
Feb 14
Last Quarter
Feb 22
New
Mar 1
First Quarter

Hourly Weather History & Observations

Time (AST) Temp. Dew Point Humidity Pressure Visibility Wind Dir Wind Speed Gust Speed Precip Events Conditions
12:00 AM 60.8 °F 50.0 °F 68% 30.21 in - NW 4.6 mph - N/A   Clear
12:30 AM 60.8 °F 50.0 °F 68% 30.18 in - NNW 3.5 mph - N/A   Clear
1:00 AM 60.8 °F 50.0 °F 68% 30.18 in - NNW 5.8 mph - N/A   Clear
1:30 AM 60.8 °F 50.0 °F 68% 30.18 in - NNW 4.6 mph - N/A   Clear
2:00 AM 60.8 °F 50.0 °F 68% 30.18 in - NW 4.6 mph - N/A   Clear
2:30 AM 60.8 °F 50.0 °F 68% 30.18 in - NW 5.8 mph - N/A   Clear
3:00 AM 60 °F 51 °F 65% 30.20 in 9 mi NNW 4.6 mph - -  
3:30 AM 59.0 °F 51.8 °F 77% 30.18 in - NNW 4.6 mph - N/A   Clear
4:00 AM 59.0 °F 51.8 °F 77% 30.18 in - NW 3.5 mph - N/A   Clear
4:30 AM 59.0 °F 50.0 °F 72% 30.18 in - NW 3.5 mph - N/A   Clear
5:00 AM 59.0 °F 50.0 °F 72% 30.18 in - NNW 5.8 mph - N/A   Clear
6:00 AM 59.0 °F 50.0 °F 72% 30.21 in 6.2 mi NNW 4.6 mph - N/A   Partly Cloudy
6:30 AM 59.0 °F 50.0 °F 72% 30.24 in 6.2 mi NNW 4.6 mph - N/A   Partly Cloudy
7:00 AM 60.8 °F 51.8 °F 72% 30.24 in 6.2 mi NW 5.8 mph - N/A   Partly Cloudy
7:30 AM 60.8 °F 51.8 °F 72% 30.24 in 6.2 mi NW 3.5 mph - N/A   Partly Cloudy
8:00 AM 62.6 °F 53.6 °F 72% 30.27 in 6.2 mi NW 5.8 mph - N/A   Partly Cloudy
8:30 AM 64.4 °F 53.6 °F 68% 30.27 in - NNW 10.4 mph - N/A   Clear
9:00 AM 65 °F 56 °F 65% 30.30 in 7 mi NNW 10.4 mph - -   Scattered Clouds
9:00 AM 66.2 °F 55.4 °F 68% 30.27 in 6.2 mi NNW 10.4 mph - N/A   Partly Cloudy
9:30 AM 66.2 °F 53.6 °F 64% 30.27 in 6.2 mi North 9.2 mph - N/A   Partly Cloudy
10:00 AM 68.0 °F 55.4 °F 64% 30.27 in 6.2 mi North 10.4 mph - N/A   Partly Cloudy
10:30 AM 68.0 °F 55.4 °F 64% 30.27 in - North 10.4 mph - N/A   Clear
11:00 AM 68.0 °F 53.6 °F 60% - - North 11.5 mph - N/A   Clear
11:30 AM 68.0 °F 51.8 °F 56% 30.24 in 6.2 mi North 12.7 mph - N/A   Partly Cloudy
12:00 PM 69.8 °F 53.6 °F 56% 30.24 in 6.2 mi North 13.8 mph - N/A   Partly Cloudy
12:30 PM 68.0 °F 53.6 °F 60% 30.24 in 6.2 mi NNE 12.7 mph - N/A   Partly Cloudy
1:00 PM 69.8 °F 53.6 °F 56% 30.21 in 6.2 mi North 12.7 mph - N/A   Partly Cloudy
1:30 PM 68.0 °F 53.6 °F 60% 30.18 in 6.2 mi North 12.7 mph - N/A   Partly Cloudy
2:00 PM 68.0 °F 53.6 °F 60% 30.18 in 6.2 mi North 12.7 mph - N/A   Partly Cloudy
2:30 PM 69.8 °F 55.4 °F 60% 30.18 in 6.2 mi North 11.5 mph - N/A   Partly Cloudy
3:00 PM 69 °F 55 °F 52% 30.19 in 9 mi NNE 9.2 mph - -   Scattered Clouds
3:00 PM 68.0 °F 55.4 °F 64% 30.18 in 6.2 mi NNE 9.2 mph - N/A   Partly Cloudy
3:30 PM 68.0 °F 53.6 °F 60% 30.18 in 6.2 mi NE 9.2 mph - N/A   Partly Cloudy
4:30 PM 68.0 °F 53.6 °F 60% 30.18 in 6.2 mi East 9.2 mph - N/A   Partly Cloudy
5:00 PM 68.0 °F 53.6 °F 60% 31.96 in 6.2 mi ENE 9.2 mph - N/A   Unknown
5:30 PM 66.2 °F 55.4 °F 68% 30.18 in 6.2 mi ENE 8.1 mph - N/A   Partly Cloudy
6:00 PM 66.2 °F 55.4 °F 68% 30.18 in 6.2 mi ENE 5.8 mph - N/A   Partly Cloudy
6:30 PM 66.2 °F 55.4 °F 68% 30.18 in - ENE 5.8 mph - N/A   Clear
7:00 PM 64.4 °F 55.4 °F 73% 30.21 in - ENE 4.6 mph - N/A   Clear
7:30 PM 64.4 °F 55.4 °F 73% 30.21 in - ENE 4.6 mph - N/A   Clear
8:00 PM 64.4 °F 55.4 °F 73% 30.21 in - ENE 4.6 mph - N/A   Clear
8:30 PM 64.4 °F 55.4 °F 73% 30.21 in - NE 3.5 mph - N/A   Clear
9:00 PM 64 °F 54 °F 63% 30.23 in 10 mi NE 3.5 mph - -  
9:00 PM 64.4 °F 53.6 °F 68% 30.21 in - NE 3.5 mph - N/A   Clear
9:30 PM 64.4 °F 55.4 °F 73% 30.21 in - NE 4.6 mph - N/A   Clear
10:00 PM 64.4 °F 55.4 °F 73% 30.21 in - NNE 3.5 mph - N/A   Clear
10:30 PM 62.6 °F 55.4 °F 77% 30.21 in - North 3.5 mph - N/A   Clear
11:00 PM 62.6 °F 57.2 °F 82% 30.24 in - North 3.5 mph - N/A   Clear
11:30 PM 62.6 °F 55.4 °F 77% 30.21 in - NNE 4.6 mph - N/A   Clear